[[{"header":{"parameterUnit":"m.s-1","parameterCategory":1,"la1":30.2991,"la2":30.254,"lo1":-89.0895,"lo2":-89.0444,"dy":0.0017,"dx":0.0017,"nx":28,"ny":28,"refTime":"2024-05-21T21:00:00:Z","depth":0,"parameterNumber":2,"parameterNumberName":"U-component_of_WINDS"},"data":[0,0,0,0,0,0,0,0,0,0,0,0,0,0,0,0,0,0,0,0,0,0,0,0,0,0,0,0,0,0,0,0,0,0,0,0,0,0,0,0,0,0,0,0,0,0,0,0,0,0,0,0,0,0,0,0,0,0,-3.1538,-3.1539,0,-3.159,-3.159,-3.1591,-3.1542,-3.154,-3.1538,-3.1536,-3.1588,-3.1592,-3.1595,0,0,0,0,0,0,0,0,0,0,0,0,0,-3.1396,-3.1399,-3.1538,-3.1539,-3.1539,-3.159,-3.159,-3.1591,-3.1542,-3.154,-3.1537,-3.1535,-3.1587,-3.1591,-3.1595,0,0,0,0,0,0,0,0,0,0,0,0,0,-3.1454,-3.14,-3.1538,-3.1521,-3.152,-3.1589,-3.159,-3.1591,-3.1542,-3.1539,-3.1537,-3.1534,-3.1586,-3.1591,-3.1596,-3.1685,0,0,-3.161,-3.1613,0,0,0,0,0,0,0,0,-3.1451,-3.1459,-3.1523,-3.1522,-3.1521,-3.1556,-3.156,-3.1622,-3.1543,-3.1534,-3.1536,-3.1532,-3.158,-3.1585,-3.1601,-3.1687,-3.1689,-3.1611,-3.1614,-3.1616,-3.1617,0,0,0,0,0,0,0,-3.1447,-3.1457,-3.1558,-3.1524,-3.1523,-3.151,-3.1515,-3.1571,-3.1573,-3.1534,-3.1531,-3.1538,-3.1579,-3.1597,-3.1602,-3.169,-3.1611,-3.1615,-3.1618,-3.162,-3.185,-3.1853,0,0,0,0,0,0,-3.1445,-3.1454,-3.1557,-3.156,-3.1478,-3.1515,-3.1521,-3.1548,-3.1572,-3.1573,-3.154,-3.1535,-3.159,-3.1597,-3.1604,-3.1709,-3.1616,-3.162,-3.1623,-3.1847,-3.1851,-3.1854,0,0,0,0,0,0,-3.1442,-3.1454,-3.1555,-3.1506,-3.1518,-3.1521,-3.1552,-3.155,-3.1568,-3.1577,-3.1576,-3.1558,-3.1588,-3.1597,-3.1665,-3.171,-3.1623,-3.1627,-3.1843,-3.1848,-3.1853,-3.192,0,0,0,0,0,0,-3.1438,-3.1454,-3.1488,-3.1507,-3.152,-3.1615,-3.1554,-3.1554,-3.1577,-3.1571,-3.1593,-3.1594,-3.1586,-3.1658,-3.167,-3.1715,-3.1631,-3.1839,-3.1845,-3.1851,-3.1913,-3.1926,-3.1937,0,0,0,0,0,-3.1433,-3.1505,-3.149,-3.1502,-3.1563,-3.1618,-3.1625,-3.1615,-3.1581,-3.1614,-3.162,-3.1593,-3.1703,-3.1665,-3.1678,-3.1726,-3.1836,-3.1844,-3.1851,-3.1908,-3.1924,-3.1937,0,0,0,0,0,0,-3.149,-3.1507,-3.149,-3.157,-3.1593,-3.1609,-3.1652,-3.1632,-3.1665,-3.1658,-3.1643,-3.1649,-3.172,-3.173,-3.1687,-3.1812,-3.1764,-3.1774,-3.1803,-3.1818,-3.183,-3.1826,-3.1635,0,0,0,0,0,-3.1512,-3.1555,-3.1567,-3.1637,-3.1649,-3.1649,-3.1672,-3.1662,-3.1685,-3.1694,-3.1704,-3.1727,-3.1767,-3.1793,-3.183,-3.1915,-3.1918,-3.1954,-3.1966,-3.1975,-3.1984,-3.2028,-3.2044,-3.1878,-3.1878,-3.1878,0,0,-3.1558,-3.1573,-3.1601,-3.1649,-3.1665,-3.171,-3.1657,-3.1707,-3.1739,-3.1702,-3.1766,-3.1774,-3.1799,-3.1875,-3.1909,-3.1885,-3.2031,-3.1985,-3.1992,-3.1996,-3.2038,-3.2053,-3.2067,-3.1883,-3.1882,-3.1881,0,0,-3.1664,-3.168,-3.1739,-3.1756,-3.1781,-3.1781,-3.1795,-3.1814,-3.1818,-3.1883,-3.1855,-3.1894,-3.1962,-3.1981,-3.1999,-3.2112,-3.2089,-3.2124,-3.2186,-3.223,-3.2243,-3.2254,-3.2293,-3.2308,-3.2133,-3.2133,-3.2134,0,-3.1718,-3.1784,-3.1772,-3.1823,-3.1845,-3.1813,-3.1872,-3.189,-3.1926,-3.1941,-3.1914,-3.1999,-3.2014,-3.2093,-3.2121,-3.2137,-3.2152,-3.2121,-3.2242,-3.2253,-3.2264,-3.2301,-3.2316,-3.2137,-3.2137,-3.2137,-3.2136,0,-3.1848,-3.1895,-3.1939,-3.1975,-3.2001,-3.2057,-3.2052,-3.2081,-3.2069,-3.2071,-3.2136,-3.2152,-3.2192,-3.221,-3.2199,-3.2288,-3.2272,-3.2244,-3.2195,-3.2284,-3.2318,-3.2333,-3.2143,-3.2142,-3.2141,-3.214,0,0,-3.1992,-3.2019,-3.2036,-3.2051,-3.2077,-3.2112,-3.2166,-3.2204,-3.2228,-3.2254,-3.2298,-3.2357,-3.2331,-3.2352,-3.2342,-3.2381,-3.2468,-3.2347,-3.2347,-3.2368,-3.2566,-3.2586,-3.2603,-3.2453,-3.2455,-3.2457,-3.2563,0,-3.2098,-3.2191,-3.2181,-3.2269,-3.2311,-3.2281,-3.2328,-3.2348,-3.2352,-3.2388,-3.2391,-3.2433,-3.2395,-3.2407,-3.2444,-3.2449,-3.2507,-3.2442,-3.2493,-3.2495,-3.2487,-3.2622,-3.2644,-3.2743,-3.2577,-3.2579,-3.2581,0,-3.2234,-3.2265,-3.2357,-3.2375,-3.2392,-3.2435,-3.2468,-3.2503,-3.2526,-3.2525,-3.2549,-3.2532,-3.2586,-3.2536,-3.2609,-3.2565,-3.2585,-3.2591,-3.2594,-3.2598,-3.2543,-3.2628,-3.2775,-3.2789,-3.2603,-3.2601,-3.2599,0,-3.2329,-3.2393,-3.2456,-3.247,-3.2493,-3.2523,-3.2534,-3.2554,-3.2577,-3.2607,-3.2622,-3.2657,-3.2677,-3.2705,-3.2698,-3.2663,-3.2772,-3.2722,-3.2773,-3.2773,-3.2797,-3.2795,-3.2948,-3.2811,-3.2811,-3.2811,-3.2811,0,-3.2448,-3.2505,-3.2499,-3.2538,-3.2601,-3.2589,-3.2652,-3.2659,-3.2677,-3.2716,-3.2692,-3.273,-3.2719,-3.2756,-3.2752,-3.2812,-3.2821,-3.2822,-3.282,-3.2824,-3.2824,-3.2836,-3.2829,-3.2815,-3.2814,-3.2813,-3.2813,0,-3.2564,-3.2562,-3.2629,-3.2645,-3.265,-3.2696,-3.2709,-3.2746,-3.2747,-3.2797,-3.2808,-3.281,-3.2853,-3.2849,-3.2897,-3.2893,-3.2968,-3.2958,-3.296,-3.2958,-3.3008,-3.3003,-3.3174,-3.3195,-3.3046,-3.3047,-3.3048,0,-3.264,-3.2683,-3.2704,-3.2728,-3.2741,-3.2781,-3.2805,-3.2795,-3.282,-3.2848,-3.2881,-3.2921,-3.2953,-3.3022,-3.3027,-3.3063,-3.3054,-3.3111,-3.3059,-3.3061,-3.3053,-3.3051,-3.3054,-3.3121,-3.3122,-3.3124,-3.3125,0,-3.2775,-3.2771,-3.2806,-3.284,-3.2869,-3.2896,-3.292,-3.2941,-3.2933,-3.2963,-3.3006,-3.303,-3.3079,-3.3118,-3.3153,-3.3163,-3.3143,-3.3141,-3.3155,-3.3159,-3.3158,-3.3158,-3.2987,-3.3137,-3.3136,-3.3135,-3.3135,-3.3134,-3.2872,-3.2909,-3.2929,-3.2968,-3.2985,-3.3008,-3.3043,-3.3048,-3.3084,-3.3122,-3.3114,-3.3162,-3.3182,-3.3226,-3.324,-3.3277,-3.3256,-3.3276,-3.3281,-3.3286,-3.3291,-3.3153,-3.3283,-3.3283,-3.3283,-3.3282,-3.3282,0,-3.3005,-3.3016,-3.3052,-3.3087,-3.3117,-3.3095,-3.3121,-3.3148,-3.319,-3.3211,-3.3242,-3.3291,-3.3329,-3.3338,-3.3374,-3.3402,-3.3394,-3.3412,-3.341,-3.3412,-3.3308,-3.3292,-3.3418,-3.3418,-3.3418,-3.3418,-3.3418,-3.3418,-3.3078,-3.3138,-3.3137,-3.3206,-3.3217,-3.3263,-3.3279,-3.33,-3.3317,-3.3372,-3.3403,-3.3409,-3.3424,-3.3462,-3.3496,-3.3497,-3.3511,-3.3533,-3.3531,-3.3433,-3.342,-3.3407,-3.3392,-3.3537,-3.3537,-3.3632,-3.3633,-3.3633]},{"header":{"parameterUnit":"m.s-1","parameterCategory":1,"la1":30.2991,"la2":30.254,"lo1":-89.0895,"lo2":-89.0444,"dy":0.0017,"dx":0.0017,"nx":28,"ny":28,"refTime":"2024-05-21T21:00:00:Z","depth":0,"parameterNumber":3,"parameterNumberName":"V-component_of_WINDS"},"data":[0,0,0,0,0,0,0,0,0,0,0,0,0,0,0,0,0,0,0,0,0,0,0,0,0,0,0,0,0,0,0,0,0,0,0,0,0,0,0,0,0,0,0,0,0,0,0,0,0,0,0,0,0,0,0,0,0,0,4.0299,4.03,0,4.035,4.0351,4.0351,4.0311,4.0309,4.0308,4.0306,4.0355,4.0358,4.0361,0,0,0,0,0,0,0,0,0,0,0,0,0,4.0164,4.0167,4.0299,4.03,4.0301,4.035,4.0351,4.0351,4.0311,4.0309,4.0307,4.0305,4.0354,4.0358,4.0361,0,0,0,0,0,0,0,0,0,0,0,0,0,4.022,4.0168,4.0299,4.0287,4.0286,4.035,4.0351,4.0352,4.0312,4.0309,4.0307,4.0304,4.0353,4.0357,4.0362,4.044,0,0,4.0375,4.0377,0,0,0,0,0,0,0,0,4.0217,4.0225,4.0288,4.0288,4.0287,4.0322,4.0321,4.0381,4.0312,4.0302,4.0306,4.0303,4.0346,4.0351,4.0366,4.0442,4.0444,4.0375,4.0378,4.038,4.0381,0,0,0,0,0,0,0,4.0213,4.0222,4.0319,4.0289,4.0288,4.0277,4.0282,4.0332,4.0338,4.0303,4.03,4.0307,4.0345,4.0362,4.0367,4.0445,4.0375,4.0379,4.0382,4.0384,4.0586,4.0588,0,0,0,0,0,0,4.0211,4.0219,4.0318,4.0321,4.0245,4.0282,4.0287,4.0313,4.0337,4.0338,4.0309,4.0305,4.0356,4.0362,4.0368,4.046,4.038,4.0384,4.0386,4.0583,4.0586,4.0589,0,0,0,0,0,0,4.0208,4.022,4.0316,4.0269,4.0281,4.0287,4.0316,4.0315,4.0332,4.0342,4.0342,4.0325,4.0354,4.0362,4.0422,4.0461,4.0386,4.039,4.058,4.0584,4.0588,4.0644,0,0,0,0,0,0,4.0204,4.0219,4.025,4.027,4.0283,4.037,4.0318,4.0318,4.034,4.0335,4.0357,4.0358,4.0352,4.0416,4.0426,4.0466,4.0393,4.0576,4.0582,4.0587,4.0639,4.065,4.0659,0,0,0,0,0,4.0199,4.0263,4.0251,4.0263,4.0322,4.0372,4.0379,4.0373,4.0343,4.0373,4.0379,4.0357,4.0455,4.0422,4.0434,4.0475,4.0574,4.058,4.0586,4.0634,4.0648,4.0659,0,0,0,0,0,0,4.0246,4.0266,4.0253,4.0326,4.0348,4.0365,4.0403,4.0387,4.0417,4.0411,4.0401,4.0406,4.0469,4.0478,4.0441,4.0551,4.051,4.0518,4.0542,4.0555,4.0565,4.0561,4.0397,0,0,0,0,0,4.0265,4.0305,4.032,4.0383,4.0394,4.0397,4.0419,4.0411,4.0433,4.0442,4.0453,4.0474,4.0509,4.0533,4.0566,4.0641,4.0644,4.0674,4.0685,4.0693,4.07,4.0738,4.0751,4.061,4.061,4.061,0,0,4.0304,4.032,4.0346,4.0392,4.0409,4.0449,4.0405,4.045,4.048,4.0449,4.0506,4.0514,4.0537,4.0604,4.0634,4.0614,4.074,4.0701,4.0707,4.071,4.0746,4.0759,4.0771,4.0614,4.0613,4.0613,0,0,4.0396,4.0413,4.0466,4.0483,4.0509,4.051,4.0523,4.0543,4.0547,4.0605,4.0582,4.0617,4.0678,4.0695,4.0712,4.0809,4.0789,4.082,4.0873,4.091,4.0921,4.0931,4.0964,4.0976,4.0828,4.0828,4.0828,0,4.0441,4.0502,4.0495,4.0542,4.0562,4.0537,4.059,4.0607,4.0641,4.0655,4.0632,4.0708,4.0722,4.0792,4.0816,4.0831,4.0844,4.0817,4.092,4.093,4.0939,4.097,4.0983,4.0832,4.0831,4.0831,4.0831,0,4.0556,4.0598,4.0638,4.0673,4.0698,4.0747,4.0746,4.0772,4.0763,4.0766,4.0824,4.084,4.0875,4.0891,4.0882,4.0959,4.0946,4.0922,4.088,4.0956,4.0985,4.0998,4.0837,4.0835,4.0834,4.0833,0,0,4.0678,4.0708,4.0722,4.0737,4.0763,4.0795,4.0843,4.0878,4.09,4.0924,4.0963,4.1015,4.0993,4.1012,4.1005,4.1038,4.1112,4.101,4.101,4.1027,4.1196,4.1213,4.1227,4.11,4.1102,4.1104,4.1193,0,4.077,4.0854,4.0848,4.0926,4.0965,4.0941,4.0982,4.1002,4.1006,4.1038,4.1043,4.108,4.1048,4.1059,4.1091,4.1096,4.1146,4.109,4.1134,4.1135,4.1127,4.1242,4.126,4.1344,4.1205,4.1207,4.1208,0,4.0888,4.0917,4.0999,4.1018,4.1034,4.1071,4.1102,4.1134,4.1155,4.1156,4.1177,4.1164,4.121,4.1169,4.1232,4.1194,4.1212,4.1217,4.122,4.1222,4.1175,4.1246,4.1371,4.1383,4.1227,4.1225,4.1224,0,4.0967,4.1026,4.1083,4.1096,4.112,4.1147,4.1158,4.1177,4.1198,4.1225,4.1238,4.127,4.1287,4.1311,4.1307,4.1277,4.1371,4.1329,4.1371,4.1371,4.1391,4.1389,4.1518,4.1405,4.1405,4.1404,4.1404,0,4.1069,4.1119,4.1118,4.1153,4.1209,4.1202,4.1257,4.1264,4.1281,4.1316,4.1298,4.133,4.1323,4.1355,4.1352,4.1404,4.1412,4.1413,4.1411,4.1414,4.1413,4.1424,4.1417,4.1408,4.1407,4.1406,4.1406,0,4.1166,4.1167,4.1227,4.1245,4.125,4.129,4.1305,4.1337,4.134,4.1384,4.1393,4.1397,4.1434,4.1433,4.1474,4.1472,4.1535,4.1528,4.1528,4.1526,4.1568,4.1563,4.1707,4.1724,4.1601,4.1602,4.1603,0,4.123,4.1269,4.129,4.1313,4.1325,4.1362,4.1383,4.1377,4.14,4.1426,4.1455,4.149,4.1518,4.1578,4.1584,4.1615,4.1607,4.1655,4.1611,4.1612,4.1605,4.1603,4.1606,4.1663,4.1664,4.1665,4.1666,0,4.1344,4.1342,4.1374,4.1406,4.1433,4.1457,4.148,4.1499,4.1495,4.1522,4.1559,4.1581,4.1624,4.1658,4.1688,4.1698,4.1681,4.168,4.1691,4.1694,4.1692,4.1692,4.155,4.1677,4.1676,4.1675,4.1674,4.1674,4.1425,4.1458,4.1478,4.1514,4.153,4.1552,4.1582,4.1589,4.162,4.1655,4.1649,4.1691,4.171,4.1748,4.1761,4.1793,4.1775,4.1792,4.1796,4.18,4.1804,4.1688,4.1798,4.1798,4.1798,4.1798,4.1797,0,4.1536,4.1548,4.1581,4.1613,4.1641,4.1624,4.1648,4.1672,4.1709,4.1729,4.1756,4.1799,4.1832,4.1841,4.1872,4.1896,4.1889,4.1904,4.1902,4.1904,4.1818,4.1805,4.191,4.191,4.1909,4.1909,4.1909,4.1909,4.1597,4.1651,4.1652,4.1713,4.1724,4.1765,4.178,4.1799,4.1814,4.1863,4.1891,4.1896,4.1911,4.1943,4.1973,4.1974,4.1986,4.2004,4.2002,4.1922,4.191,4.19,4.1887,4.2007,4.2007,4.2085,4.2086,4.2087]}]]